Regional Weather Roundup
Issued by NWS Wakefield, VA

Home | Current Version | Previous Version | Graphics & Text | Print | Product List | Glossary On
Versions: 1 2 3 4 5 6 7 8 9 10 11 12 13 14 15 16 17 18 19 20 21 22 23 24 25 26 27 28 29 30 31 32 33 34 35 36 37 38 39 40 41 42 43 44 45 46 47 48 49 50
814
ASUS41 KAKQ 220915
RWRAKQ

REGIONAL WEATHER ROUNDUP
NATIONAL WEATHER SERVICE WAKEFIELD VA
400 AM EST WED NOV 22 2017

Note: "fair" indicates few or no clouds below 12,000 feet with no
significant weather and/or obstructions to visibility. * = Denotes
station may not report precipitation (e.g., rain,snow,etc.),
thunder or fog.

VAZ042-051-052>054-056-221000-
NORTHERN VIRGINIA

CITY           SKY/WX    TMP DP  RH WIND       PRES   REMARKS
WASH NATIONAL  LGT RAIN  53  48  83 S10       29.92F
DULLES         CLOUDY    52  46  80 SW7       29.92S
FORT BELVOIR   LGT RAIN  47  44  91 CALM      29.91F
QUANTICO       LGT RAIN  51  50  96 S8        29.92F
FREDERICKSBRG* LGT RAIN  50  50 100 CALM      29.92F
STAFFORD*      LGT RAIN  47  47 100 CALM      29.96F
WARRENTON      NOT AVBL
CULPEPER*      CLOUDY    52  43  72 CALM      29.93F
MANASSAS*      LGT RAIN  52  45  77 CALM      29.93S
LEESBURG*      CLOUDY    50  43  76 CALM      29.94R
WINCHESTER     CLOUDY    46  41  81 SW5       29.92F
FRONT ROYAL*   PTSUNNY   46  41  81 CALM      29.92R
LURAY*         CLOUDY    50  45  81 W5        29.92S
$$

VAZ048-049-060>072-079>083-221000-
CENTRAL AND SOUTH CENTRAL VIRGINIA

CITY           SKY/WX    TMP DP  RH WIND       PRES   REMARKS
RICHMOND       LGT RAIN  51  49  92 N3        29.93F
CHESTERFIELD*  NOT AVBL
PETERSBURG*    LGT RAIN N/A N/A N/A CALM      29.93F
HANOVER        RAIN      52  52 100 CALM      29.94F FOG
TAPPAHANNOCK*    N/A    N/A N/A N/A MISG        N/A
QUINTON*       CLOUDY    50  50 100 W7        29.94S
CHARLOTTSVILLE PTCLDY    50  42  74 S5        29.91F
GORDONSVILLE*  CLOUDY    46  46  99 CALM      29.92F
ORANGE*        CLOUDY    46  45  93 CALM      29.93S
LOUISA*        CLOUDY    48  48  99 SW5       29.96F FOG
BUMPASS*       CLOUDY    48  48 100 S9        29.92F
FARMVILLE*     CLOUDY    49  49 100 CALM      29.92F
CREWE*         CLOUDY    49  49 100 CALM      29.93F
FORT PICKETT*  NOT AVBL
CHASE CITY*    CLOUDY    50  50 100 CALM      29.94F
CLARKSVILLE*   CLOUDY    50  50 100 CALM      29.93F
SOUTH HILL*    CLOUDY    50  50 100 CALM      29.98F
LAWRENCEVILLE* CLOUDY    51  51  97 CALM      29.93F
EMPORIA*       CLOUDY    50  50 100 W3        29.95S
$$

VAZ088>098-221000-
SOUTHEAST VIRGINIA

CITY           SKY/WX    TMP DP  RH WIND       PRES   REMARKS
NORFOLK        LGT RAIN  61  58  90 S7        29.91F
VIRGINIA BEACH CLOUDY    61  57  87 S8        29.91F
NORFOLK NAVAL  CLOUDY    61  57  87 S7        29.93F
WEST POINT*    CLOUDY    51  50  97 CALM      29.93F
SALUDA*        PTSUNNY   52  52 100 CALM      29.91F VSB 3/4
NEWPORT NEWS   MOCLDY    56  53  90 CALM      29.91F
LANGLEY AFB    CLOUDY    58  56  94 CALM      29.91F
FORT EUSTIS    CLOUDY    55  53  92 CALM      29.89F
WILLIAMSBURG*  MOCLDY    54  52  94 CALM      29.92F
HR EXEC AP*    NOT AVBL
FRANKLIN*      CLOUDY    51  50  93 CALM      29.93S
US460-WAKEFLD  CLOUDY    52  51  97 CALM      29.92F
$$

VAZ020-022-025-037-045-221000-
WEST CENTRAL AND SOUTHWEST VIRGINIA

CITY           SKY/WX    TMP DP  RH WIND       PRES   REMARKS
STAUNTON*      CLOUDY    42  40  93 CALM      29.94F
WAYNESBORO*    CLOUDY    50  46  84 W7        29.93F
HOT SPRINGS VA CLOUDY    42  42 100 W14G20    29.94F
LYNCHBURG      CLOUDY    46  45  96 SW3       29.94F FOG
DANVILLE       CLOUDY    48  48 100 CALM      29.94F
SOUTH BOSTON*  CLOUDY    49  48  95 CALM      29.94F
MARTINSVILLE   CLOUDY    43  43  98 CALM      29.99R FOG
ROANOKE        PTCLDY    48  45  89 W7        29.98S
BLACKSBURG     CLOUDY    43  43  99 W3        30.01S
DUBLIN*        CLOUDY    49  44  83 W7        30.00S
MARION*        CLOUDY    48  39  71 W15       30.02S
HILLSVILLE*    CLOUDY    46  44  92 NW8       29.98R
RICHLANDS*     CLOUDY    44   8  23 W5        30.05R
WISE*          PTCLDY    43  32  65 NW5       30.07S
ABINGDON*      CLOUDY    50  37  59 NW6       30.04R
$$

MDZ021>025-VAZ099-100-221000-
SOUTHERN MARYLAND AND THE DELMARVA PENINSULA

CITY           SKY/WX    TMP DP  RH WIND       PRES   REMARKS
PATUXENT RIVER MOCLDY    53  52  96 CALM      29.91F
BAY BRIDGE APT CLOUDY    52  48  87 S5        29.93F
LEONARDTOWN    CLOUDY    52  50  93 CALM      29.94F
DOVER          MOCLDY    53  53 100 SW5       29.92F
GEORGETOWN     RAIN      57  54  89 S8        29.94F
EASTON         CLOUDY    53  51  94 CALM      29.97F FOG
CAMBRIDGE      CLOUDY    55  55 100 S7        29.93F
SALISBURY      LGT RAIN  56  56 100 CALM      29.93F FOG
OCEAN CITY     CLOUDY    58  57  97 SW6       29.94F
WALLOPS ISLAND CLOUDY    60  58  92 S9        29.93F
ACCOMACK*      CLOUDY    60  58  91 S8        29.92F
$$

NCZ012>017-030>032-221000-
NORTH CENTRAL AND EASTERN NORTH CAROLINA

CITY           SKY/WX    TMP DP  RH WIND       PRES   REMARKS
ROANOKE RAPIDS PTSUNNY   50  50 100 CALM      29.91F
RALEIGH        CLOUDY    52  51  97 CALM      29.96S
ELIZABETH CITY LGT RAIN  58  58 100 S3        29.93F
AHOSKIE*       CLOUDY    50  49  97 CALM      29.92F
EDENTON*       DRIZZLE   60  58  96 CALM      29.94R
CURRITUCK*     CLOUDY    61  59  94 CALM      29.93F
KILL DEVIL HLS LGT RAIN N/A N/A N/A CALM      29.93F
MANTEO         RAIN      60  59  99 N3        29.94F
CAPE HATTERAS  HVY RAIN  63  63 100 VRB7      29.93R FOG
TARBORO*       NOT AVBL
GOLDSBORO      MOCLDY    54  51  92 CALM      29.90F
WASHINGTON     LGT RAIN  57  56  97 CALM      29.93F
GREENVILLE     CLOUDY    54  52  94 CALM      29.94S
NEW BERN       LGT RAIN  55  55 100 CALM      29.91F FOG
WILMINGTON     FOG       61  61 100 CALM      29.91S VSB 1/2
$$

VAZ048-221000-
ELSEWHERE

CITY           SKY/WX    TMP DP  RH WIND       PRES   REMARKS
HARRISBURG PA  CLOUDY    41  37  86 CALM      29.91F
BALTIMORE      CLOUDY    52  46  80 SW3       29.91F
ANNAPOLIS      CLOUDY    54  50  86 S3        29.91F
ANDREWS AFB    RAIN      53  48  82 SW7       29.91F
PHILADELPHIA   CLOUDY    53  47  79 S6        29.93F
GREENSBORO     CLOUDY    49  49 100 CALM      29.95F
ROCKY MOUNT    CLOUDY    51  51 100 CALM      29.92F
$$

VAZ100-221000-
MARINE

STATION/POSITION TIME  TEMP    WIND        PRES    WAVE   SWELL
                       AIR SEA DIR/SP/G            HT/PER HT/PER
                 (UTC) (F)     (DEG/KT/KT) (MB)    (FT/S) (FT/S)
BRANDYWINE LGT   0848   57     210/ 16/ 18 1013.9F
CAPE MAY NJ      0848   54 49  270/  7/ 10 1014.0F
LEWES DE         0848   57 52  240/  3/  5 1014.1F
15NM E FENWICK I 0850   60 57  140/ 16/ 16 1013.5F   3/ 4
OCEAN-CITY-INLET 0848   58 53  190/  8/ 12 1013.8F
WACHAPREAGUE VA  0848   58 51  230/  2/  5 1013.3F
THOMAS POINT MD  0900   54 53  180/  9/ 11   N/A
GOOSES REEF MD   0850   54     270/  4/  6 1014.1F
COVE POINT MD    0848   56      CALM  /  2 1013.8F
SOLOMONS ISLAND  0848   54 54   10/  2/  2 1012.7F
BISHOPS HEAD MD  0848   54 49  170/ 11/ 14 1013.3F
PINEY POINT MD   0848          310/ 12/ 15   N/A
POTOMAC MD       0850   56     170/  8/ 10 1012.2F
CAMBRIDGE MD     0848   55 50              1014.0F
LEWISETTA VA     0848   57 51  190/  5/  6 1012.7F
RAPPAHANNOCK LGT 0848          140/ 12/ 14 1013.4F
STINGRAY PT      0850   57     250/  4/  6 1013.4F
YORK RVR RNG VA  0848   56     130/  4/  5 1013.2F
YORKTOWN VA      0848   55 54   40/  4/  5 1012.5F
JAMESTOWN VA     0850          310/  4/  6   N/A
DOMINION TERM VA 0848   59     120/  5/  5 1013.0F
KIPTOPEKE VA     0848      54  160/  9/ 10   N/A
CAPE HENRY VA    0848   61     150/  8/ 12   N/A
WILLOUBY STN VA  0848   60      10/  1/  2 1012.9F
S CRANEY ISL VA  0848   58     160/  7/  8 1012.6F
CAPE HENRY BUOY  0900      56                N/A     2/ 3
1ST LANDING BUOY 0850   57     150/  4/  6 1013.0F
CAPE CHARLES BUO 0851      56                N/A     2/ 4
64NM E OF VA BCH 0850   64 63  130/  8/ 10 1014.2F   4/ 6   3/ 6
DUCK PIER NC     0848   62 60  130/ 10/ 10 1013.2F
44100 DUCK FRF   0845      61                N/A     3/ 6
44056 DUCK FRF   0900      61                N/A     3/ 6
OREGON INLET NC  0842   60 54  320/  3/  4 1013.3F
HATTERAS NC      0848   62 59  240/ 11/ 14 1013.2R
DIAMOND SHLS NC  0850   63 75   20/ 10/ 14 1013.7R   7/ 7   7/ 7
CAPE LOOKOUT NC  0900          360/  5/  5 1013.4F
$$




USA.gov is the U.S. government's official web portal to all federal, state and local government web resources and services.